Regional Weather Roundup
Issued by NWS

Home | Current Version | Previous Version | Text Only | Print | Product List | Glossary On
Versions: 1 2 3 4 5 6 7 8 9 10 11 12 13 14 15 16 17 18 19 20 21 22 23 24 25 26 27 28
000
ASUS42 KKEY 042110
RWRKEY

FLORIDA REGIONAL WEATHER ROUNDUP FOR THE FLORIDA KEYS
NATIONAL WEATHER SERVICE KEY WEST FLORIDA
500 PM EDT WED MAY 04 2016

...SOUTH FLORIDA AND THE KEYS...

CITY           SKY/WX    TMP DP  RH WIND       PRES   REMARKS
FORT MYERS     CLOUDY    71  70  96 SE5       29.70F
SW REGIONAL AP CLOUDY    72  68  87 SE8       29.71F
NAPLES         TSTM      74  72  93 SE9       29.70F FOG
MIAMI          CLOUDY    75  72  90 N7        29.75F
WEST KENDALL   CLOUDY    76  73  91 CALM      29.75F
HOMESTEAD      DRIZZLE   75  73  95 E5        29.76R
MARATHON       CLOUDY    83  76  79 SW6       29.75F HX  91
BOCA CHICA NAS TSTM      80  76  87 W16       29.77F
KEY WEST INTL  LGT RAIN  78  78 100 W12       29.77S

...INTERNATIONAL WEATHER...

CITY           SKY/WX    TMP DP  RH WIND       PRES   REMARKS
NASSAU BAHAMAS PTSUNNY   77  75  94 CALM      29.81
CANCUN MEXICO  PTSUNNY   77  75  94 N3        29.83R
COZUMEL MEXICO PTSUNNY   84  75  74 S8        29.78F HX  92

ADJACENT COASTAL WATERS...

STATION/POSITION TIME  SKY/WX   TEMP    WIND        PRES    WAVE
                                AIR SEA DIR/SP/G            HT/PER
                 (UTC)          (F)     (DEG/KT/KT) (MB)    (FT/S)
PULASKI SHOAL LI 2100            74     200/ 29/ 33 1006.9F
SAND KEY         2050            80     270/ 15/ 17 1008.5R
SOMBRERO KEY     NOT AVBL
LONG KEY         2100            82 83  260/ 13/ 14 1007.8F
MOLASSES REEF    NOT AVBL
FOWEY ROCKS      NOT AVBL

$$




USA.gov is the U.S. government's official web portal to all federal, state and local government web resources and services.